CZ-2D R/B (43916 NORAD) Tracking and Keplerian Element Data

This shows tracking and keplerian element data for the satellite.

Feedback or suggestion? Click here.




ElementValue
Catalog43916
NameCZ-2D R/B
Epoch Orbit41
Epoch Day365.88142452
Epoch Year2018
RAAN170.7146
Inclination50.0359
Eccentricity0.0002053
Argument of Perigee125.9401
Mean Anonmoly241.2107
Mean Motion16.49044286
Decay Rate0.08770306
L11 43916U 18112H 18365.88142452 .08770306 12497-4 12136-3 0 9997
L22 43916 50.0359 170.7146 0002053 125.9401 241.2107 16.49044286 411

Live tracking and technical data element details for CZ-2D R/B (NORAD 43916). CZ-2D R/B can be tracked NOW for your location showing map with azimuth and elevation plus other details from your city location.

Track the satellite on the map from your city or location and see movement details for azimuth, elevation, latitude, longitude, range, height, and movement on the map or in text.







IsCatalogInMostPopularTable: catalog: 43916, numindb: 13
Update: records affected: 1



GetName: 43916 CZ-2D R/B

Hit Count: updated at: Fri, 18 Jan 2019 21:45:24 GMT